NOAA 16 DEB, 41198

Orbit data source: Space-Track

NOAA 16 DEB, 41198 is space debris in SSO originally from a launch on Thu, 21 Sep 2000 UTC launched from the Air Force Western Test Range (AFWTR). Debris objects in space refer to the collection of defunct objects orbiting the Earth. Examples of debris include non-operational satellites, rocket bodies, and fragments generated from explosions, collisions, or faulty payload assembly.

Loading next visibility...
Identifier
41198, 2000-055DB
Orbit
SSO
Country
Flag of USUS
Related business
Manufacturer
Unknown
Mission
Spacecraft
Bus & Motor
Unknown
Mass
Unknown
Launch date (UTC)
2000-09-21 (25 years ago)
Launch vehicle
Unknown
Launch site
Air Force Western Test Range (AFWTR)
Object type
Payload
Rocket body
Debris
Shape & HBR
Unknown shape, 0.1 m
Radar Cross Section
Small (<0.1 m²)

Expand to show TLE details & history
Last TLE update: 17 hours ago

TLE from 17 hours ago
0 NOAA 16 DEB
1 41198U 00055DB  25349.76037785  .00008511  00000-0  26564-2 0  9999
2 41198  98.9146  91.9263 0020121 331.7704  28.2392 14.40941380515329
Epoch: 2025-12-15T18:14Z
TLE epoch observation values (Epoch: 2025-12-15T18:14:56.646Z)
Latitude
0.00007°
Longitude
93.53595°
Altitude
745.685 km
Speed
7.489 km/s
True Right ascension
06h 07m 42s
True Declination
0° 00' 00"
Sunlit
Object was in full shadow at epoch
Visualization orbit readout
Latitude
Unknown
Longitude
Unknown
Altitude
Unknown
Speed
Unknown
Apparent Right ascension
Unknown
Apparent Declination
Unknown
Sunlit
N/A
Visualization observer readout
Local Sidereal Time
09:57:01
Azimuth
Unknown
Elevation
Unknown
Doppler factor
Unknown
Orbital elements
Apogee altitude
766.878 km
Perigee altitude
738.183 km
Semi-major axis
7,130.667 km
Eccentricity
0.00201
Inclination
98.9146°
RAAN
91.9263°
Arg. of periapsis
331.7704°
True anomaly
28.34854°
Mean anomaly
28.2392°
Eccentric anomaly
28.29384°
Mean motion
3.60452 °/min
Orbital period
99.87 mins
BSTAR
0.0026564
Loading maneuver chart data...
Computing Atmospheric mass density...
Loading historical data...
Loading historical data...
Loading historical data...
Loading historical data...
Loading historical data...
Loading historical data...
Loading historical data...

Documentation

Showing up to 5 results
|